Terminal Aerodrome Forecast
Issued by NWS Blacksburg, VA

Current Version | Previous Version | Graphics & Text | Print | Product List | Glossary On
Versions: 1 2 3 4 5 6 7 8 9 10 11 12 13 14 15 16 17 18 19 20 21 22 23 24 25 26 27 28 29 30 31 32 33 34 35 36 37 38 39 40 41 42 43 44
000
FTUS41 KRNK 270930 AAB
TAFBLF
TAF AMD
KBLF 270930Z 2709/2806 14006KT P6SM VCSH BKN009 OVC060
     FM271600 22009KT 5SM SHRA BR BKN035
     FM272100 25009G17KT P6SM BKN040
     FM280300 28010KT P6SM SCT015 BKN030=

USA.gov is the U.S. government's official web portal to all federal, state and local government web resources and services.